Theta_e
319 319 319 319 317 318 319 319 319 319 320 320 319 320 321 324 325 325 325 323 320 317 316 315 314 314 313 313 314 312 312 311 310 309 308 308 308 306 307 306 305 304 307 308
319 318 317 318 318 318 318 319 318 318 319 318 319 320 320 323 325 325 325 324 321 318 318 315 313 313 312 312 312 312 311 309 308 309 309 309 308 305 307 305 303 303 303 303
320 318 317 317 317 318 318 318 318 319 319 318 317 320 320 322 324 325 324 324 323 321 320 319 316 313 313 313 313 310 309 309 310 310 309 309 308 307 306 305 304 303 303 302
320 319 319 318 318 318 318 319 318 319 319 319 317 317 320 321 323 324 324 324 324 322 321 319 318 317 316 316 316 314 313 312 311 310 309 308 307 306 305 304 303 302 302 301
319 320 319 316 317 319 318 319 319 320 319 318 317 316 318 320 321 322 323 323 323 321 320 317 316 317 315 313 312 312 311 310 309 308 307 307 305 304 303 302 301 300 299 299
318 321 324 319 318 318 319 321 320 320 320 318 316 318 318 319 320 321 322 322 322 322 319 315 315 314 312 310 310 309 308 308 306 305 304 303 303 302 301 300 299 298 298 298
316 321 319 318 318 318 319 320 321 321 321 320 318 319 318 318 320 320 322 322 322 322 319 316 315 313 311 309 308 307 305 304 303 302 302 302 301 300 299 298 298 298 298 297
316 320 322 316 316 318 320 319 319 321 322 320 318 318 319 318 320 321 323 322 322 322 319 317 315 313 311 309 308 305 303 302 301 301 300 300 299 299 298 298 297 297 297 297
317 320 318 315 317 316 316 320 317 319 321 320 318 317 318 318 320 321 323 323 322 322 320 318 315 314 312 309 307 304 302 301 300 300 299 299 298 298 298 297 297 297 296 296
318 318 318 316 315 314 313 316 316 317 318 318 318 317 317 318 319 320 321 322 322 322 320 319 314 313 312 309 306 304 302 301 300 299 298 298 298 298 298 297 296 296 296 296
317 317 318 318 314 314 313 313 313 314 315 317 317 317 317 318 319 320 320 321 321 321 320 318 314 313 312 308 305 304 303 302 300 299 298 298 298 297 297 297 296 296 295 295
316 316 317 317 317 313 314 314 314 313 314 316 317 317 317 317 318 318 318 319 319 320 320 317 314 313 312 308 305 304 303 302 301 299 298 298 298 297 296 296 295 295 295 294
315 315 316 316 314 313 313 315 314 314 314 316 316 318 317 317 317 317 317 317 319 319 318 316 314 312 311 307 305 304 304 302 301 300 299 299 298 297 296 294 294 293 293 293
312 314 313 313 313 313 313 314 314 314 314 315 315 316 317 317 316 316 316 316 317 317 316 315 313 312 310 307 305 305 304 303 302 300 300 299 298 298 297 295 294 293 291 291
312 312 312 314 311 312 312 314 315 314 314 314 315 315 316 317 317 316 315 315 316 316 315 315 313 312 310 307 305 305 305 303 302 300 301 299 298 298 297 296 295 294 294 293
312 312 311 311 312 311 312 313 315 315 314 314 314 314 315 316 316 315 314 314 315 315 314 314 313 312 309 306 305 305 305 304 302 301 301 299 298 297 297 296 296 296 294 293
310 313 312 312 312 311 311 312 314 315 315 314 314 314 314 315 316 315 314 314 314 314 313 312 312 311 309 306 305 306 305 304 302 302 301 299 298 297 297 296 296 295 294 293
310 311 313 313 312 311 311 311 313 314 315 314 313 313 314 315 316 314 313 313 313 313 313 312 310 309 307 306 305 306 305 304 302 302 301 300 298 298 296 296 295 294 294 294
309 310 311 312 312 312 311 311 312 312 314 313 313 314 314 314 314 313 312 312 311 312 311 310 309 308 306 305 305 305 305 304 302 302 301 299 298 297 296 295 294 294 293 293
309 309 310 311 312 312 311 311 311 311 312 312 312 313 313 313 313 312 311 311 310 311 310 309 308 307 306 304 304 305 304 303 302 301 300 299 297 297 296 295 294 293 292 292
310 310 311 311 311 312 311 311 311 311 311 312 311 312 313 312 312 311 311 311 309 309 309 308 307 306 305 304 303 303 303 303 302 300 299 298 297 296 296 294 293 291 290 290
310 311 310 309 310 311 310 311 310 310 309 310 311 312 312 311 310 310 310 311 308 308 308 307 306 305 304 303 302 302 302 302 300 299 298 297 296 296 295 292 291 291 290 293
309 311 311 309 309 309 309 310 309 310 310 310 311 311 311 310 310 310 309 308 308 307 307 306 305 304 304 302 301 301 301 300 299 298 297 297 296 295 293 292 291 291 293 294
306 309 311 310 309 309 310 309 309 309 309 310 310 310 310 309 308 308 308 307 307 306 306 306 304 303 302 301 300 300 299 298 297 297 297 296 295 294 293 292 292 293 294 292
305 306 309 311 310 309 310 308 308 308 309 309 309 309 308 308 308 306 306 305 305 305 305 304 302 301 301 300 299 299 298 297 297 296 296 295 295 294 293 293 294 293 292 291
304 305 306 308 310 310 310 309 309 308 308 309 308 307 307 307 306 305 304 303 303 303 302 300 299 300 300 299 298 297 297 297 296 295 295 295 295 294 294 294 293 292 291 290
301 301 304 305 306 308 309 309 309 309 308 308 307 306 305 305 305 304 302 302 302 302 301 299 298 299 299 298 297 297 296 295 295 295 296 295 295 295 295 293 293 291 289 289
Wind_Speed
24 25 9 13 21 26 27 26 15 16 16 13 17 17 16 16 16 16 15 14 12 10 9 11 12 10 9 10 10 12 14 16 16 16 17 16 17 17 18 17 13 12 14 14
22 23 12 14 16 22 28 25 24 17 12 6 16 16 16 17 18 17 17 17 15 13 14 14 14 14 12 11 11 12 14 16 18 20 21 20 19 17 20 19 17 16 14 14
18 20 11 15 23 20 21 24 24 21 21 9 11 19 20 20 19 19 18 18 18 17 17 20 19 17 15 14 13 12 15 15 16 16 16 16 16 15 16 16 15 15 14 13
13 14 16 14 18 21 22 23 21 21 11 9 13 16 18 19 20 20 19 19 19 18 21 20 20 19 18 18 17 17 16 15 15 15 16 15 15 15 15 15 14 14 13 12
9 13 12 5 4 21 18 20 21 21 17 13 11 11 15 20 20 20 21 19 23 25 24 22 21 20 20 19 18 18 18 17 17 17 17 17 16 16 14 14 13 12 11 10
5 17 21 12 11 11 13 13 16 22 19 19 14 13 12 21 21 20 21 25 25 27 26 24 23 23 22 20 19 17 17 16 16 15 14 14 14 13 11 11 11 11 10 9
13 11 14 10 14 12 14 5 16 18 21 20 20 15 12 21 19 20 23 26 28 28 26 26 25 24 23 22 20 19 19 18 17 16 16 16 15 13 13 12 12 11 11 9
11 16 20 8 11 14 8 1 2 8 15 23 18 11 15 21 21 20 20 26 29 26 25 27 26 25 24 23 21 20 20 20 19 19 18 19 18 16 15 13 12 10 9 8
14 18 5 16 8 15 2 3 2 6 10 16 18 13 16 18 20 20 21 25 27 26 26 26 26 26 24 23 23 22 21 20 18 16 14 14 13 13 11 11 11 12 11 9
16 19 24 11 11 3 2 2 2 5 11 15 17 15 14 17 17 18 22 24 28 27 26 26 26 25 24 24 25 24 22 20 19 18 17 16 14 14 13 14 12 12 12 11
22 21 15 16 13 4 5 2 4 5 11 15 16 16 16 16 17 17 22 27 29 27 26 26 27 27 26 27 27 25 23 22 20 17 17 15 13 14 13 12 13 13 13 12
12 16 14 17 13 11 10 8 7 9 12 13 13 15 15 16 16 20 22 28 26 27 27 28 28 27 27 29 30 28 25 24 23 21 22 19 17 14 14 11 15 14 12 11
17 14 17 10 3 14 14 10 10 10 12 14 13 13 16 16 19 24 26 28 28 29 30 29 29 28 29 30 30 29 26 26 24 23 23 21 20 18 17 16 13 15 13 14
15 15 10 10 6 6 7 8 9 8 9 11 12 14 14 14 20 22 24 29 28 28 27 28 29 30 31 31 31 29 26 26 24 25 22 22 21 19 17 18 16 14 15 13
13 15 16 19 7 3 5 7 11 11 11 13 13 12 13 15 16 19 24 26 26 26 27 28 28 28 32 33 32 31 29 26 25 25 22 22 21 19 18 17 16 16 15 14
15 14 14 17 16 8 9 12 13 12 13 12 14 14 17 18 19 20 24 28 27 24 29 28 29 29 32 34 32 29 29 27 29 25 24 24 23 22 21 20 19 18 17 18
19 19 16 15 17 12 11 10 13 12 12 14 16 19 19 19 18 19 22 26 24 23 26 29 28 28 32 34 32 28 27 27 30 24 26 26 24 24 23 21 20 19 18 20
19 20 18 16 13 10 10 10 10 13 12 17 19 21 17 15 16 19 23 23 20 18 23 24 25 29 31 32 31 26 26 26 29 26 23 24 24 23 23 22 21 20 18 21
20 19 19 19 15 11 13 11 9 11 14 15 17 17 23 24 21 23 25 22 20 18 21 24 28 30 30 31 30 25 24 23 24 23 21 21 23 22 23 23 22 21 22 25
21 20 20 18 15 12 10 8 9 8 9 15 19 15 14 18 22 25 26 23 25 18 24 28 30 29 25 27 30 23 22 22 22 21 20 21 22 23 24 25 24 24 25 24
18 20 19 18 14 13 15 11 10 9 12 16 17 15 14 22 23 25 19 9 18 20 24 29 30 26 25 25 30 22 23 22 21 20 21 21 22 23 24 24 24 26 25 26
15 16 16 14 13 14 17 16 14 13 15 14 15 15 18 18 20 19 17 17 27 27 25 27 27 26 26 27 27 24 22 21 20 20 21 22 23 22 23 24 23 23 28 24
11 13 13 13 11 13 17 16 15 17 15 16 14 17 20 21 24 15 7 18 27 29 27 27 27 28 26 29 26 24 23 22 22 21 22 22 22 23 24 25 26 28 25 20
11 13 13 15 16 11 11 10 14 14 15 15 15 16 19 17 13 12 11 27 27 32 30 28 28 30 30 27 26 26 24 23 22 22 21 22 23 23 24 25 25 24 20 18
10 11 10 12 13 10 11 16 14 13 14 13 15 17 18 17 10 19 22 29 30 31 27 26 32 34 28 28 28 26 25 23 23 24 24 23 24 24 24 25 22 21 20 19
8 7 6 8 9 13 14 15 7 13 13 9 12 16 17 17 16 23 22 31 31 29 31 36 35 29 29 29 28 27 25 24 26 24 25 24 25 25 25 22 21 20 18 18
5 5 6 6 9 11 15 16 9 9 18 19 15 19 21 23 24 25 27 27 29 30 32 30 29 29 29 30 28 26 25 26 25 27 25 26 25 25 24 22 22 20 18 18
Wind_Direction
244 257 235 208 204 204 211 218 226 240 233 204 193 194 185 174 174 174 174 164 157 158 155 145 136 130 120 113 114 116 113 110 107 106 104 103 110 106 109 117 114 114 120 121
249 243 229 237 225 212 214 221 231 247 243 272 184 189 184 182 179 183 182 170 167 163 163 156 153 145 139 133 128 125 117 114 114 113 111 105 106 110 114 107 104 103 100 101
249 230 220 251 222 211 216 220 225 231 239 249 201 189 190 186 186 188 185 173 175 170 177 164 166 158 156 154 145 135 128 127 124 122 118 120 124 121 115 115 113 108 106 106
244 246 211 255 215 202 209 212 217 234 240 214 205 209 195 193 187 187 185 179 175 173 174 166 160 161 160 162 158 151 147 145 142 138 134 132 130 128 124 125 127 121 118 115
232 207 250 165 217 189 202 228 220 223 220 218 195 197 206 193 192 188 184 179 177 173 169 162 162 159 157 156 154 152 152 150 150 148 145 144 142 139 137 133 126 126 125 122
295 233 230 247 201 198 192 257 212 213 210 200 173 195 200 191 187 184 180 178 175 169 165 167 165 161 159 160 160 159 157 153 150 148 144 143 141 139 136 132 128 128 129 130
231 243 242 254 150 151 185 270 203 196 201 191 194 206 186 175 180 180 175 174 172 171 171 171 167 165 166 166 170 165 159 155 154 154 153 153 151 150 147 146 146 144 139 134
214 236 243 143 150 185 200 86 336 210 188 191 184 194 151 164 169 171 169 171 172 171 172 175 174 173 173 173 169 163 161 160 161 163 163 164 161 159 157 153 151 148 144 137
194 217 285 181 210 220 26 319 179 202 180 171 171 164 159 163 166 167 166 168 172 172 171 176 177 180 177 175 168 166 167 167 166 165 166 166 164 161 159 162 164 166 169 169
238 231 227 208 219 245 174 296 162 177 170 164 166 160 154 159 164 165 167 167 170 172 175 174 178 182 181 175 171 171 172 171 172 172 171 173 173 175 179 181 181 181 182 183
214 235 220 225 224 213 214 188 146 161 174 175 167 162 158 160 163 165 166 167 172 175 176 175 177 182 181 176 175 177 177 176 178 179 179 179 185 188 190 196 193 188 191 187
213 203 224 226 221 202 220 201 178 163 164 178 172 163 162 161 165 165 167 169 173 176 174 174 178 181 181 177 178 179 181 181 181 181 182 183 183 180 196 197 200 194 190 184
220 224 231 252 54 185 202 194 188 177 173 168 172 162 162 161 166 165 167 170 176 177 175 174 177 180 183 180 182 186 185 183 183 184 184 186 186 181 181 195 199 202 203 197
256 238 258 245 240 180 200 191 170 169 165 174 162 157 157 162 161 168 172 176 174 173 174 173 176 183 184 182 184 191 190 187 185 189 188 185 187 189 185 177 177 184 198 198
259 251 240 254 308 206 187 204 180 181 169 170 177 168 164 164 170 174 169 171 172 173 177 177 180 186 185 183 186 190 190 188 188 186 190 187 186 186 187 183 182 176 173 179
256 259 253 254 254 283 236 221 207 197 184 174 171 179 178 166 168 167 166 170 170 181 181 183 184 185 185 185 188 192 193 191 187 185 186 185 184 185 183 180 179 175 176 178
238 238 228 233 253 248 262 224 209 204 193 178 182 179 170 165 162 161 170 177 179 179 182 183 184 182 184 186 187 190 191 193 188 189 187 186 184 185 182 180 178 176 179 181
238 245 238 234 236 249 243 245 240 225 199 195 180 171 171 174 176 168 167 168 173 176 183 185 181 179 183 186 186 188 188 189 187 192 189 185 184 184 179 176 175 172 175 177
240 240 241 239 246 239 240 225 233 231 232 197 174 175 181 184 170 164 162 166 172 172 181 180 182 179 184 188 185 184 186 184 183 190 188 183 181 181 176 173 171 172 171 170
240 242 238 235 231 233 242 230 214 208 216 188 180 181 170 169 162 161 166 177 184 179 175 176 178 179 183 188 183 180 179 180 176 183 183 180 178 178 175 176 171 170 173 174
231 232 231 233 229 229 230 217 201 195 187 195 177 179 174 167 160 156 162 173 171 171 177 179 176 172 176 180 177 172 174 176 175 176 178 177 176 177 177 174 168 170 171 175
236 225 224 224 225 222 230 228 190 179 176 183 193 177 154 153 156 167 178 173 169 174 169 172 177 175 175 175 168 169 169 169 168 169 173 179 177 176 172 167 165 168 177 187
268 235 215 208 197 213 212 201 184 178 172 165 172 169 169 167 167 161 169 174 174 178 173 173 175 174 173 164 163 162 161 163 165 168 175 175 173 169 164 166 170 176 182 186
263 253 225 205 184 199 191 179 174 176 174 167 163 159 148 145 150 171 169 173 172 172 175 175 171 168 163 158 158 158 158 161 163 166 167 166 165 165 163 166 168 177 180 179
245 254 239 202 190 188 184 161 164 171 154 149 150 160 161 159 159 162 161 167 165 165 166 168 164 161 159 159 160 156 158 158 160 161 160 160 160 160 163 164 166 168 173 176
239 231 225 215 208 186 178 171 169 172 163 149 148 155 159 171 159 153 153 156 155 163 152 152 157 159 159 160 157 156 155 157 158 157 156 155 154 155 160 161 166 165 174 179
243 243 209 187 192 199 194 191 180 181 182 171 168 171 165 166 154 153 149 146 146 148 148 154 157 160 159 158 154 152 153 154 154 152 152 150 154 159 162 166 171 171 176 182